Terug naar catalogus

FENGYUN 1C DEB

ActiefPO
NORAD 30520·DEBRIS·🇨🇳 China

Gelanceerd May 10, 1999 vanaf Taiyuan Satellite Launch Center

Loading…

Volgende Passages (komende 24 uur)

TLE

VersSource: Space-Track

Epoch: Sep 14, 2026, 13:55 UTC

1 30520U 99025AJJ 26257.58052095  .00015974  00000-0  59924-3 0  9999
2 30520  98.7027 118.2715 0052524 247.7381 111.8278 15.26033307 52331

Volg FENGYUN 1C DEB in realtime met AllMySat

Download on the App Store